Cumberland, WV

8:29 AM EDT on May 27, 2017 (GMT -0400)
Greater Cumberland Regional

Weather History for KCBE - May, 2013

Change the Weather History Date:

Sunday, May 26, 2013

  Actual Average (KMRB) Record (KMRB)
Temperature  
Mean Temperature 55 °F -  
Max Temperature 69 °F 75 °F 92 °F (1991)
Min Temperature 41 °F 53 °F 38 °F (1956)
Degree Days  
Heating Degree Days 10    
Growing Degree Days 5 (Base 50)    
Moisture  
Dew Point 32 °F    
Average Humidity 42    
Maximum Humidity 76    
Minimum Humidity 23    
Precipitation  
Precipitation 0.00 in - - ()
Sea Level Pressure  
Sea Level Pressure 30.26 in    
Wind  
Wind Speed 6 mph (NNW)    
Max Wind Speed 15 mph    
Max Gust Speed 23 mph    
Visibility 10 miles    
Events      
Averages and records for this station are not official NWS values.
T = Trace of Precipitation, MM = Missing Value Source: NWS Daily Summary

Daily Weather History Graph

Daily Weather History Graph

Search for Another Location

Airport or City:

Trip Planner

Search our weather history database for the weather conditions in past years. The results will help you decide how hot, cold, wet, or windy it might be!

Date:

Astronomy

May. 26, 2013 Rise Set
Actual Time 5:52 AM EDT 8:32 PM EDT
Civil Twilight 5:20 AM EDT 9:03 PM EDT
Nautical Twilight 4:41 AM EDT 9:43 PM EDT
Astronomical Twilight 3:57 AM EDT 10:27 PM EDT
Moon 10:18 PM EDT (5/26) 7:19 AM EDT (5/26)
Length of Visible Light 15h 42m
Length of Day
14h 40m
Waning Gibbous, 97% of the Moon is Illuminated
May 26
Waning Gibbous
May 31
Last Quarter
Jun 8
New
Jun 16
First Quarter
Jun 23
Full

Hourly Weather History & Observations

Time (EDT) Temp. Windchill Dew Point Humidity Pressure Visibility Wind Dir Wind Speed Gust Speed Precip Events Conditions
12:10 AM 51.8 °F - 30.2 °F 44% 30.25 in 10.0 mi NNW 11.5 mph 16.1 mph N/A   Clear
12:30 AM 51.8 °F - 30.2 °F 44% 30.25 in 10.0 mi NNW 10.4 mph - N/A   Clear
12:51 AM 51.8 °F - 30.2 °F 44% 30.25 in 10.0 mi NNW 6.9 mph - N/A   Clear
1:11 AM 51.8 °F - 30.2 °F 44% 30.25 in 10.0 mi NW 5.8 mph - N/A   Clear
1:31 AM 50.0 °F - 30.2 °F 47% 30.25 in 10.0 mi NNW 6.9 mph - N/A   Clear
1:51 AM 50.0 °F - 30.2 °F 47% 30.25 in 10.0 mi North 3.5 mph - N/A   Clear
2:11 AM 46.4 °F - 32.0 °F 57% 30.25 in 10.0 mi Calm Calm - N/A   Clear
2:31 AM 46.4 °F - 32.0 °F 57% 30.25 in 10.0 mi Calm Calm - N/A   Clear
2:51 AM 48.2 °F - 30.2 °F 50% 30.26 in 10.0 mi Calm Calm - N/A   Clear
3:11 AM 48.2 °F - 30.2 °F 50% 30.26 in 10.0 mi NE 3.5 mph - N/A   Clear
3:31 AM 46.4 °F - 30.2 °F 53% 30.26 in 10.0 mi Calm Calm - N/A   Clear
3:51 AM 46.4 °F - 32.0 °F 57% 30.26 in 10.0 mi Calm Calm - N/A   Clear
4:11 AM 44.6 °F - 32.0 °F 61% 30.26 in 10.0 mi Calm Calm - N/A   Clear
4:31 AM 44.6 °F 43.1 °F 32.0 °F 61% 30.26 in 10.0 mi WNW 3.5 mph - N/A   Clear
4:51 AM 42.8 °F - 32.0 °F 66% 30.27 in 10.0 mi Calm Calm - N/A   Clear
5:11 AM 42.8 °F 40.1 °F 32.0 °F 66% 30.27 in 10.0 mi WNW 4.6 mph - N/A   Clear
5:31 AM 42.8 °F - 33.8 °F 70% 30.27 in 10.0 mi Calm Calm - N/A   Clear
5:51 AM 42.8 °F - 33.8 °F 70% 30.27 in 10.0 mi Calm Calm - N/A   Clear
6:11 AM 41.0 °F - 33.8 °F 76% 30.28 in 10.0 mi Calm Calm - N/A   Clear
6:31 AM 41.0 °F - 33.8 °F 76% 30.29 in 10.0 mi Calm Calm - N/A   Clear
6:51 AM 42.8 °F - 33.8 °F 70% 30.29 in 10.0 mi Calm Calm - N/A   Clear
7:11 AM 44.6 °F - 33.8 °F 66% 30.29 in 10.0 mi Calm Calm - N/A   Clear
7:31 AM 44.6 °F - 35.6 °F 71% 30.30 in 10.0 mi Calm Calm - N/A   Clear
7:51 AM 46.4 °F - 33.8 °F 62% 30.30 in 10.0 mi Calm Calm - N/A   Clear
8:11 AM 50.0 °F - 33.8 °F 54% 30.30 in 10.0 mi Calm Calm - N/A   Clear
8:31 AM 51.8 °F - 35.6 °F 54% 30.30 in 10.0 mi Calm Calm - N/A   Clear
8:51 AM 51.8 °F - 33.8 °F 50% 30.29 in 10.0 mi Calm Calm - N/A   Clear
9:12 AM 53.6 °F - 35.6 °F 51% 30.29 in 10.0 mi Calm Calm - N/A   Clear
9:32 AM 55.4 °F - 33.8 °F 44% 30.29 in 10.0 mi Calm Calm - N/A   Clear
9:52 AM 55.4 °F - 33.8 °F 44% 30.28 in 10.0 mi SE 4.6 mph - N/A   Clear
10:12 AM 57.2 °F - 33.8 °F 41% 30.28 in 10.0 mi ESE 4.6 mph - N/A   Clear
10:32 AM 59.0 °F - 33.8 °F 39% 30.27 in 10.0 mi Calm Calm - N/A   Clear
10:52 AM 59.0 °F - 32.0 °F 36% 30.27 in 10.0 mi West 3.5 mph - N/A   Clear
11:11 AM 60.8 °F - 28.4 °F 29% 30.27 in 10.0 mi NNW 8.1 mph 16.1 mph N/A   Clear
11:32 AM 62.6 °F - 30.2 °F 30% 30.27 in 10.0 mi NNW 11.5 mph 19.6 mph N/A   Clear
11:52 AM 62.6 °F - 28.4 °F 27% 30.27 in 10.0 mi WNW 5.8 mph 10.4 mph N/A   Clear
12:12 PM 62.6 °F - 30.2 °F 30% 30.27 in 10.0 mi NNW 11.5 mph 20.7 mph N/A   Clear
12:32 PM 64.4 °F - 28.4 °F 26% 30.26 in 10.0 mi NW 11.5 mph 18.4 mph N/A   Clear
12:52 PM 64.4 °F - 28.4 °F 26% 30.25 in 10.0 mi North 11.5 mph 18.4 mph N/A   Clear
1:12 PM 64.4 °F - 28.4 °F 26% 30.25 in 10.0 mi North 12.7 mph 18.4 mph N/A   Clear
1:32 PM 64.4 °F - 28.4 °F 26% 30.25 in 10.0 mi NW 11.5 mph 18.4 mph N/A   Clear
1:52 PM 64.4 °F - 28.4 °F 26% 30.24 in 10.0 mi NNW 11.5 mph 17.3 mph N/A   Clear
2:12 PM 66.2 °F - 30.2 °F 26% 30.24 in 10.0 mi West 11.5 mph 17.3 mph N/A   Clear
2:32 PM 68.0 °F - 30.2 °F 24% 30.23 in 10.0 mi NW 11.5 mph 16.1 mph N/A   Clear
2:52 PM 68.0 °F - 30.2 °F 24% 30.23 in 10.0 mi West 10.4 mph - N/A   Clear
3:12 PM 68.0 °F - 30.2 °F 24% 30.23 in 10.0 mi NW 10.4 mph 18.4 mph N/A   Clear
3:32 PM 68.0 °F - 32.0 °F 26% 30.23 in 10.0 mi North 10.4 mph 17.3 mph N/A   Clear
3:52 PM 69.8 °F - 32.0 °F 25% 30.22 in 10.0 mi WNW 9.2 mph 17.3 mph N/A   Clear
4:12 PM 68.0 °F - 32.0 °F 26% 30.22 in 10.0 mi WNW 13.8 mph 17.3 mph N/A   Clear
4:32 PM 68.0 °F - 30.2 °F 24% 30.22 in 10.0 mi NNW 10.4 mph 20.7 mph N/A   Clear
4:52 PM 69.8 °F - 30.2 °F 23% 30.21 in 10.0 mi North 15.0 mph 23.0 mph N/A   Clear
5:12 PM 68.0 °F - 32.0 °F 26% 30.22 in 10.0 mi NNW 10.4 mph - N/A   Clear
5:32 PM 69.8 °F - 30.2 °F 23% 30.22 in 10.0 mi NNW 13.8 mph 20.7 mph N/A   Clear
5:52 PM 68.0 °F - 30.2 °F 24% 30.22 in 10.0 mi NW 9.2 mph - N/A   Clear
6:13 PM 68.0 °F - 30.2 °F 24% 30.22 in 10.0 mi NNW 6.9 mph 20.7 mph N/A   Clear
6:33 PM 68.0 °F - 30.2 °F 24% 30.22 in 10.0 mi NNW 11.5 mph 18.4 mph N/A   Clear
6:53 PM 68.0 °F - 30.2 °F 24% 30.22 in 10.0 mi NW 8.1 mph 18.4 mph N/A   Clear
7:13 PM 66.2 °F - 32.0 °F 28% 30.22 in 10.0 mi NW 5.8 mph - N/A   Clear
7:33 PM 66.2 °F - 32.0 °F 28% 30.22 in 10.0 mi NW 8.1 mph - N/A   Clear
7:53 PM 64.4 °F - 30.2 °F 28% 30.22 in 10.0 mi NNW 11.5 mph - N/A   Clear
8:13 PM 62.6 °F - 32.0 °F 32% 30.23 in 10.0 mi NNW 4.6 mph - N/A   Clear
8:33 PM 62.6 °F - 32.0 °F 32% 30.24 in 10.0 mi NW 8.1 mph - N/A   Clear
8:53 PM 62.6 °F - 32.0 °F 32% 30.24 in 10.0 mi NW 6.9 mph - N/A   Clear
9:13 PM 62.6 °F - 32.0 °F 32% 30.25 in 10.0 mi NW 3.5 mph - N/A   Clear
9:33 PM 60.8 °F - 32.0 °F 34% 30.25 in 10.0 mi Calm Calm - N/A   Clear
9:53 PM 59.0 °F - 32.0 °F 36% 30.26 in 10.0 mi Calm Calm - N/A   Clear
10:13 PM 55.4 °F - 32.0 °F 41% 30.27 in 10.0 mi Calm Calm - N/A   Clear
10:33 PM 55.4 °F - 33.8 °F 44% 30.27 in 10.0 mi Calm Calm - N/A   Clear
10:53 PM 53.6 °F - 35.6 °F 51% 30.28 in 10.0 mi Calm Calm - N/A   Clear
11:13 PM 53.6 °F - 37.4 °F 54% 30.29 in 10.0 mi East 3.5 mph - N/A   Clear
11:33 PM 50.0 °F - 35.6 °F 58% 30.29 in 10.0 mi North 4.6 mph - N/A   Clear
11:53 PM 50.0 °F - 37.4 °F 62% 30.30 in 10.0 mi Calm Calm - N/A   Clear